Pagina principale
METAR-TAF:

METAR-TAF

Aeroporti :

Aeroporto di Forlì

Forlì, Italia

latitudine: 44-12N, longitudine: 012-04E, altezza: 27 m

Osservazione

Il bollettino è stato emesso 9 ore e 38 minuti fa, alle 16:50 UTC
Vento calmo
Temperature 3°C
Umidità 70%
Pressione 995 hPa
Visibilità: 8000 m
Nubi sparse ad un'altezza di 1000 ft
Nuvoloso ad un'altezza di 3000 ft

METAR: LIPK 231650Z 00000KT 8000 SCT010 BKN030 03/M02 Q0995

Ora: 03:28 (02:28 UTC)


TAF: mancante

Osservazioni e previsioni meteorologiche di più di 4000 aeroporti (messaggi METAR e TAF).

Le stazioni disponibili sono rappresentate dai dischi gialli e rossi sulla carta.

Puntare il mouse per vedere il nome della stazione.

Clicca sopra per visualizzare le osservazioni e previsioni meteorologiche.

Per cambiare la mappa : fare clic sui pulsanti verdi con una croce nera per ingrandire, il pulsante verde con un trattino per diminuire, o sulla freccia verde per le mappe adiacenti.


METAR-TAF: